User: anonymous   Login
Location: Unspecified
(0.0000°N, 0.0000°E)
Time: 20:39:39
(UTC+00:00)
Language:

COSMOS-2408 - Orbit

View from above orbital plane
View from above orbital plane
View from above satellite
View from above satellite

Ground track
Ground track

The orbit data is extracted from the following two-line orbital elements,

1 28419U 04037A   17172.74780954 -.00000007 +00000-0 -11901-3 0  9994
2 28419 082.4849 221.9392 0014567 262.6370 097.3057 12.45607349579405
Epoch (UTC): 21 June 2017 17:56:50
Eccentricity: 0.0014567
inclination: 82.4849°
perigee height: 1471 km
apogee height: 1494 km
right ascension of ascending node: 221.9392°
argument of perigee: 262.6370°
revolutions per day: 12.45607349
mean anomaly at epoch: 97.3057°
orbit number at epoch: 57940

The dashed part of the orbit path shows where the satellite is in the earth's shadow,  

DLR